[[{"header":{"parameterUnit":"m.s-1","parameterCategory":1,"la1":30.2991,"la2":30.254,"lo1":-89.0895,"lo2":-89.0444,"dy":0.0017,"dx":0.0017,"nx":28,"ny":28,"refTime":"2025-08-13T21:00:00:Z","depth":0,"parameterNumber":2,"parameterNumberName":"U-component_of_WINDS"},"data":[0,0,0,0,0,0,0,0,0,0,0,0,0,0,0,0,0,0,0,0,0,0,0,0,0,0,0,0,0,0,0,0,0,0,0,0,0,0,0,0,0,0,0,0,0,0,0,0,0,0,0,0,0,0,0,0,0,0,2.3679,2.368,0,2.3789,2.379,2.3792,2.3777,2.3775,2.3773,2.3771,2.3886,2.3891,2.3896,0,0,0,0,0,0,0,0,0,0,0,0,0,2.3456,2.346,2.3679,2.368,2.3681,2.3789,2.3791,2.3792,2.3777,2.3775,2.3773,2.377,2.3885,2.3891,2.3896,0,0,0,0,0,0,0,0,0,0,0,0,0,2.3559,2.3462,2.3678,2.3687,2.3689,2.3789,2.3791,2.3792,2.3777,2.3775,2.3772,2.3769,2.3883,2.389,2.3897,2.3996,0,0,2.3919,2.3922,0,0,0,0,0,0,0,0,2.3553,2.3567,2.3684,2.3686,2.3689,2.3766,2.3754,2.3861,2.3778,2.3744,2.3771,2.3768,2.3849,2.3859,2.3886,2.4002,2.4007,2.392,2.3924,2.3927,2.3929,0,0,0,0,0,0,0,2.3546,2.3562,2.3722,2.3686,2.3689,2.3686,2.3697,2.3775,2.3811,2.3747,2.3746,2.3759,2.385,2.3879,2.3888,2.4008,2.3919,2.3926,2.393,2.3933,2.4213,2.4216,0,0,0,0,0,0,2.3536,2.3556,2.3719,2.3726,2.3612,2.3692,2.3705,2.3744,2.381,2.3817,2.3761,2.3758,2.3868,2.388,2.3892,2.4014,2.3927,2.3934,2.3938,2.421,2.4214,2.4217,0,0,0,0,0,0,2.3531,2.3551,2.3714,2.3641,2.3661,2.3699,2.3743,2.3748,2.3777,2.3821,2.3827,2.3784,2.3866,2.3882,2.3971,2.4018,2.3937,2.3943,2.4206,2.4211,2.4216,2.4257,0,0,0,0,0,0,2.3525,2.3549,2.3587,2.3642,2.3665,2.3791,2.3746,2.3752,2.3789,2.3786,2.3844,2.3851,2.3865,2.396,2.3978,2.4026,2.3949,2.4202,2.4208,2.4214,2.4252,2.4263,2.4272,0,0,0,0,0,2.3517,2.3594,2.3589,2.3609,2.3713,2.3793,2.3807,2.3821,2.3793,2.3831,2.386,2.3849,2.4009,2.3969,2.3989,2.404,2.4199,2.4207,2.4214,2.4247,2.4261,2.4272,0,0,0,0,0,0,2.3545,2.3602,2.3596,2.3693,2.3739,2.3791,2.384,2.3835,2.3889,2.3884,2.39,2.3913,2.4003,2.403,2.3985,2.414,2.4101,2.4112,2.4119,2.4132,2.4142,2.4135,2.3955,0,0,0,0,0,2.3562,2.3622,2.3668,2.375,2.3773,2.3802,2.3838,2.3845,2.3893,2.3912,2.3947,2.3994,2.4055,2.4095,2.4154,2.4255,2.4268,2.43,2.431,2.4318,2.4328,2.4385,2.44,2.424,2.424,2.424,0,0,2.3599,2.3637,2.3674,2.3756,2.3792,2.3855,2.3819,2.3886,2.3933,2.3922,2.4008,2.4036,2.409,2.4185,2.4229,2.4211,2.4375,2.4327,2.4333,2.4339,2.4394,2.4409,2.4423,2.4245,2.4244,2.4244,0,0,2.3697,2.3732,2.3804,2.384,2.3895,2.3914,2.3931,2.3985,2.4002,2.4088,2.4082,2.4138,2.4243,2.4282,2.4315,2.4429,2.4422,2.4448,2.4501,2.4556,2.4569,2.458,2.4622,2.4637,2.4457,2.4457,2.4457,0,2.3736,2.3829,2.3841,2.391,2.3947,2.3939,2.4013,2.4048,2.4119,2.4145,2.4123,2.4255,2.429,2.4396,2.4424,2.4451,2.4472,2.4442,2.4566,2.4578,2.4588,2.4628,2.4644,2.446,2.446,2.446,2.4459,0,2.3875,2.394,2.3991,2.406,2.4102,2.4173,2.4197,2.4238,2.4242,2.4263,2.4352,2.4395,2.4462,2.4487,2.4491,2.4594,2.4581,2.4562,2.4523,2.4606,2.4644,2.4659,2.4464,2.4463,2.4462,2.4462,0,0,2.3995,2.4069,2.4088,2.4119,2.4179,2.423,2.43,2.4366,2.4402,2.4451,2.4511,2.46,2.4583,2.4621,2.463,2.4678,2.4767,2.4654,2.4655,2.4674,2.4884,2.4899,2.4916,2.4762,2.4765,2.4767,2.488,0,2.4101,2.4225,2.4238,2.4349,2.441,2.4404,2.4465,2.4509,2.4531,2.4586,2.4611,2.4674,2.4647,2.467,2.4717,2.4746,2.4809,2.4738,2.482,2.4822,2.4807,2.4936,2.4951,2.5055,2.4895,2.4897,2.4899,0,2.4241,2.4293,2.4411,2.4462,2.4488,2.4543,2.4605,2.4657,2.4707,2.472,2.4762,2.4764,2.4838,2.4795,2.4897,2.4848,2.4882,2.4902,2.4906,2.4915,2.4867,2.495,2.5089,2.5105,2.4922,2.492,2.4919,0,2.4318,2.4419,2.4502,2.4529,2.4591,2.463,2.4658,2.4704,2.4743,2.4797,2.4822,2.4884,2.4918,2.4966,2.4985,2.4952,2.5087,2.5045,2.5101,2.5101,2.5131,2.5129,2.5279,2.5151,2.5151,2.515,2.515,0,2.4436,2.4508,2.4538,2.4589,2.467,2.4685,2.4765,2.4791,2.4833,2.489,2.4888,2.4942,2.4963,2.502,2.5035,2.5119,2.5134,2.5147,2.5151,2.5148,2.5147,2.5172,2.5166,2.5155,2.5154,2.5153,2.5152,0,2.4537,2.4559,2.465,2.4701,2.4715,2.4773,2.4817,2.4867,2.4888,2.4961,2.4979,2.5012,2.508,2.5103,2.5185,2.5195,2.5293,2.5289,2.5276,2.5277,2.5332,2.5327,2.5504,2.5529,2.5383,2.5385,2.5386,0,2.4611,2.4666,2.4723,2.4761,2.479,2.4851,2.489,2.4906,2.4947,2.5008,2.5051,2.5118,2.5173,2.5281,2.5313,2.5376,2.5375,2.5433,2.5385,2.5381,2.5378,2.5375,2.5381,2.5443,2.5444,2.5445,2.5446,0,2.4741,2.4749,2.4805,2.4866,2.4912,2.4961,2.5008,2.5039,2.5063,2.5109,2.5178,2.522,2.5303,2.537,2.5435,2.5464,2.546,2.5461,2.5478,2.5476,2.5467,2.5474,2.5302,2.5457,2.5456,2.5455,2.5455,2.5454,2.4832,2.4881,2.4929,2.4992,2.5028,2.5072,2.5122,2.5149,2.5206,2.5275,2.5281,2.5356,2.5405,2.549,2.5523,2.5582,2.5566,2.559,2.5596,2.5602,2.5607,2.5456,2.5594,2.5593,2.5593,2.5593,2.5593,0,2.4963,2.4993,2.505,2.5116,2.5166,2.5156,2.5207,2.525,2.5315,2.536,2.5414,2.5493,2.5558,2.5595,2.566,2.57,2.57,2.5717,2.5715,2.5722,2.5616,2.5596,2.5716,2.5716,2.5716,2.5716,2.5716,2.5716,2.5037,2.512,2.5134,2.5235,2.5265,2.5337,2.5368,2.5409,2.5445,2.5533,2.5587,2.561,2.5653,2.5721,2.578,2.579,2.5814,2.5833,2.5841,2.5742,2.5729,2.5717,2.5699,2.5838,2.5838,2.5942,2.5943,2.5944]},{"header":{"parameterUnit":"m.s-1","parameterCategory":1,"la1":30.2991,"la2":30.254,"lo1":-89.0895,"lo2":-89.0444,"dy":0.0017,"dx":0.0017,"nx":28,"ny":28,"refTime":"2025-08-13T21:00:00:Z","depth":0,"parameterNumber":3,"parameterNumberName":"V-component_of_WINDS"},"data":[0,0,0,0,0,0,0,0,0,0,0,0,0,0,0,0,0,0,0,0,0,0,0,0,0,0,0,0,0,0,0,0,0,0,0,0,0,0,0,0,0,0,0,0,0,0,0,0,0,0,0,0,0,0,0,0,0,0,-2.5635,-2.5636,0,-2.5723,-2.5724,-2.5725,-2.5726,-2.5725,-2.5724,-2.5723,-2.5812,-2.5815,-2.5818,0,0,0,0,0,0,0,0,0,0,0,0,0,-2.5466,-2.5469,-2.5635,-2.5636,-2.5637,-2.5723,-2.5725,-2.5726,-2.5727,-2.5725,-2.5724,-2.5723,-2.5811,-2.5815,-2.5819,0,0,0,0,0,0,0,0,0,0,0,0,0,-2.5545,-2.547,-2.5635,-2.5648,-2.565,-2.5723,-2.5725,-2.5726,-2.5727,-2.5725,-2.5724,-2.5722,-2.5809,-2.5814,-2.5819,-2.5884,0,0,-2.5835,-2.5837,0,0,0,0,0,0,0,0,-2.5541,-2.5551,-2.5645,-2.5647,-2.565,-2.5712,-2.5697,-2.5779,-2.5727,-2.5698,-2.5723,-2.5721,-2.578,-2.5787,-2.5807,-2.5888,-2.5892,-2.5835,-2.5838,-2.584,-2.5842,0,0,0,0,0,0,0,-2.5535,-2.5548,-2.567,-2.5646,-2.5649,-2.5649,-2.5659,-2.5713,-2.5747,-2.57,-2.5701,-2.5711,-2.5781,-2.5802,-2.5809,-2.5893,-2.5835,-2.584,-2.5843,-2.5845,-2.6031,-2.6033,0,0,0,0,0,0,-2.5527,-2.5543,-2.5667,-2.5673,-2.559,-2.5654,-2.5664,-2.5694,-2.5746,-2.5753,-2.5712,-2.5711,-2.5795,-2.5804,-2.5813,-2.5891,-2.584,-2.5845,-2.5848,-2.6029,-2.6032,-2.6034,0,0,0,0,0,0,-2.5524,-2.5538,-2.5664,-2.5608,-2.5624,-2.5658,-2.5692,-2.5697,-2.5718,-2.5756,-2.5762,-2.5728,-2.5794,-2.5805,-2.5866,-2.5894,-2.5847,-2.5852,-2.6027,-2.603,-2.6033,-2.605,0,0,0,0,0,0,-2.5519,-2.5537,-2.5562,-2.5609,-2.5627,-2.5716,-2.5693,-2.5699,-2.5727,-2.5726,-2.5772,-2.5778,-2.5793,-2.5859,-2.5871,-2.5901,-2.5856,-2.6025,-2.6029,-2.6032,-2.6047,-2.6053,-2.6058,0,0,0,0,0,-2.5513,-2.5563,-2.5563,-2.5578,-2.5659,-2.5718,-2.5728,-2.5745,-2.573,-2.5755,-2.5779,-2.5777,-2.589,-2.5865,-2.5879,-2.591,-2.6023,-2.6027,-2.6032,-2.6044,-2.6052,-2.6058,0,0,0,0,0,0,-2.5518,-2.5569,-2.557,-2.5637,-2.5673,-2.5718,-2.575,-2.5752,-2.5793,-2.579,-2.5809,-2.5819,-2.588,-2.5901,-2.5873,-2.5976,-2.5954,-2.5962,-2.5959,-2.5966,-2.5972,-2.5965,-2.586,0,0,0,0,0,-2.5527,-2.5571,-2.5613,-2.5668,-2.5687,-2.5716,-2.5742,-2.5752,-2.5789,-2.5804,-2.5833,-2.5869,-2.5913,-2.5941,-2.5983,-2.6051,-2.606,-2.6079,-2.6085,-2.6089,-2.6095,-2.6131,-2.614,-2.6048,-2.6048,-2.6048,0,0,-2.5546,-2.558,-2.5606,-2.567,-2.57,-2.5744,-2.5728,-2.5776,-2.5809,-2.5811,-2.5871,-2.5893,-2.5935,-2.5999,-2.6029,-2.6019,-2.6123,-2.6095,-2.6098,-2.6101,-2.6137,-2.6145,-2.6153,-2.6051,-2.605,-2.605,0,0,-2.5603,-2.5634,-2.5683,-2.5712,-2.5757,-2.5776,-2.5788,-2.5833,-2.5848,-2.5908,-2.5911,-2.595,-2.6025,-2.6054,-2.6079,-2.6149,-2.6148,-2.6162,-2.6191,-2.6226,-2.6233,-2.624,-2.6264,-2.6272,-2.6168,-2.6168,-2.6168,0,-2.5621,-2.5689,-2.5707,-2.5755,-2.5783,-2.5789,-2.5838,-2.5866,-2.5922,-2.5941,-2.5929,-2.6024,-2.6052,-2.6123,-2.614,-2.6161,-2.6174,-2.6156,-2.6231,-2.6238,-2.6244,-2.6267,-2.6276,-2.6169,-2.6169,-2.6169,-2.6169,0,-2.5708,-2.5755,-2.5789,-2.5843,-2.5875,-2.5924,-2.5949,-2.5979,-2.5987,-2.6007,-2.6068,-2.6103,-2.6152,-2.617,-2.6178,-2.6242,-2.6235,-2.6227,-2.6206,-2.6254,-2.6275,-2.6284,-2.6171,-2.6171,-2.617,-2.617,0,0,-2.5769,-2.5834,-2.5846,-2.5871,-2.5921,-2.5957,-2.6006,-2.6055,-2.608,-2.6119,-2.616,-2.6224,-2.6217,-2.6245,-2.6257,-2.6288,-2.634,-2.6277,-2.6278,-2.6286,-2.6412,-2.6416,-2.6426,-2.634,-2.6342,-2.6344,-2.6408,0,-2.5831,-2.5918,-2.5936,-2.6011,-2.6054,-2.6061,-2.6103,-2.6138,-2.6159,-2.6198,-2.6221,-2.6265,-2.6254,-2.6271,-2.6302,-2.6327,-2.6365,-2.6323,-2.6377,-2.6379,-2.6365,-2.6438,-2.6442,-2.6501,-2.6417,-2.6418,-2.6419,0,-2.5913,-2.5955,-2.6034,-2.6079,-2.6098,-2.6135,-2.6182,-2.622,-2.626,-2.6272,-2.6304,-2.6313,-2.6363,-2.6341,-2.641,-2.6381,-2.6404,-2.642,-2.6423,-2.6427,-2.6401,-2.6443,-2.6521,-2.6529,-2.6433,-2.6432,-2.6431,0,-2.5949,-2.6024,-2.6082,-2.6103,-2.6156,-2.6183,-2.6206,-2.6245,-2.6273,-2.6314,-2.6332,-2.6378,-2.6403,-2.6438,-2.6458,-2.644,-2.6526,-2.6505,-2.6537,-2.6536,-2.6553,-2.6551,-2.6634,-2.6571,-2.6571,-2.657,-2.657,0,-2.6014,-2.6062,-2.6098,-2.6133,-2.6187,-2.6208,-2.6261,-2.6284,-2.6318,-2.6358,-2.6367,-2.6403,-2.6428,-2.6468,-2.6485,-2.6539,-2.655,-2.6561,-2.6565,-2.656,-2.6558,-2.6574,-2.657,-2.6573,-2.6572,-2.6572,-2.6571,0,-2.6062,-2.6088,-2.6151,-2.6197,-2.621,-2.6247,-2.6287,-2.6321,-2.6342,-2.6391,-2.6404,-2.6437,-2.6485,-2.6509,-2.6568,-2.6579,-2.664,-2.6642,-2.6627,-2.6628,-2.6657,-2.6654,-2.6753,-2.6766,-2.6695,-2.6696,-2.6696,0,-2.6101,-2.6139,-2.6189,-2.6216,-2.6241,-2.6284,-2.6314,-2.6336,-2.6366,-2.6415,-2.6443,-2.6491,-2.6531,-2.6607,-2.6636,-2.6681,-2.6683,-2.6714,-2.6689,-2.6683,-2.6682,-2.6679,-2.6682,-2.6718,-2.6719,-2.6719,-2.672,0,-2.6168,-2.6179,-2.6221,-2.6268,-2.6303,-2.6341,-2.6378,-2.64,-2.6428,-2.6461,-2.6511,-2.6542,-2.6603,-2.665,-2.6698,-2.6721,-2.6725,-2.6728,-2.6737,-2.6732,-2.6721,-2.6726,-2.6637,-2.6725,-2.6724,-2.6724,-2.6724,-2.6724,-2.6212,-2.6245,-2.6286,-2.6333,-2.6363,-2.6398,-2.6432,-2.6458,-2.65,-2.6551,-2.6562,-2.6614,-2.6654,-2.6718,-2.6743,-2.6784,-2.6777,-2.6791,-2.6794,-2.6797,-2.6798,-2.6716,-2.6793,-2.6793,-2.6793,-2.6793,-2.6793,0,-2.6278,-2.6305,-2.6348,-2.64,-2.6436,-2.6438,-2.648,-2.651,-2.6556,-2.6592,-2.6632,-2.6688,-2.6735,-2.6768,-2.6815,-2.6841,-2.6844,-2.6852,-2.685,-2.6855,-2.6802,-2.6788,-2.6849,-2.6849,-2.6849,-2.6849,-2.6849,-2.6849,-2.6317,-2.6373,-2.6389,-2.646,-2.6487,-2.6538,-2.6561,-2.6593,-2.6623,-2.6686,-2.6725,-2.6746,-2.6782,-2.6831,-2.6874,-2.6883,-2.6899,-2.6907,-2.6915,-2.6865,-2.6859,-2.6853,-2.684,-2.6911,-2.6911,-2.6965,-2.6965,-2.6966]}]]